This is the latest recevied weather packets stored in our database for station/object JF7BTK-10. If no packets are shown the sender has not sent any weather packets the latest 10 day(s).
| Time | Temp. | Humidity | Pressure | Rain* | Wind** | Luminosity | Snow |
|---|---|---|---|---|---|---|---|
| 1788235988 | 22.78° C | 77% | 1011.7 hPa | 0 mm | - | - | - |
| 1788235087 | 22.78° C | 78% | 1011.5 hPa | 0 mm | - | - | - |
| 1788234952 | 22.78° C | 78% | 1011.5 hPa | 0 mm | - | - | - |
| 1788234187 | 23.33° C | 76% | 1011.3 hPa | 0 mm | - | - | - |
| 1788233451 | 23.33° C | 75% | 1011.3 hPa | 0 mm | - | - | - |
| 1788233288 | 23.33° C | 76% | 1011.3 hPa | 0 mm | - | - | - |
| 1788232387 | 23.33° C | 76% | 1011.3 hPa | 0 mm | - | - | - |
| 1788231488 | 23.89° C | 76% | 1011.3 hPa | 0 mm | - | - | - |
| 1788230587 | 23.33° C | 77% | 1011.5 hPa | 0 mm | - | - | - |
| 1788229687 | 22.78° C | 78% | 1011.7 hPa | 0 mm | - | - | - |
| 1788228789 | 22.78° C | 77% | 1011.8 hPa | 0 mm | - | - | - |
| 1788227889 | 22.78° C | 78% | 1012.1 hPa | 0 mm | - | - | - |
| 1788226989 | 22.78° C | 77% | 1011.8 hPa | 0 mm | - | - | - |
| 1788226087 | 22.78° C | 79% | 1012.1 hPa | 0 mm | - | - | - |
| 1788225187 | 22.22° C | 78% | 1012 hPa | 0 mm | - | - | - |
| 1788224750 | 22.22° C | 78% | 1012.2 hPa | 0 mm | - | - | - |
| 1788224288 | 22.22° C | 77% | 1012.1 hPa | 0 mm | - | - | - |
| 1788223388 | 22.78° C | 78% | 1012.3 hPa | 0 mm | - | - | - |
| 1788222488 | 22.22° C | 82% | 1012.1 hPa | 0 mm | - | - | - |
| 1788221588 | 22.22° C | 82% | 1012 hPa | 0 mm | - | - | - |
| 1788220689 | 22.22° C | 83% | 1012.2 hPa | 0 mm | - | - | - |
| 1788220252 | 22.22° C | 83% | 1012.1 hPa | 0 mm | - | - | - |
| 1788219789 | 21.67° C | 84% | 1011.9 hPa | 0 mm | - | - | - |
| 1788219663 | 21.67° C | 84% | 1012 hPa | 0 mm | - | - | - |
| 1788219051 | 21.67° C | 85% | 1012.1 hPa | 0 mm | - | - | - |
* Rain latest hour (hover to see other rain measurements)
** Current wind speed in m/s (hover to see current wind gust speed)